Location: Unspecified
(43.8044°N, 11.0278°E)
Time: 17:44:30
(UTC+02:00)

Resurs 1-4 Rocket - Visible Passes

Search period start: 30 June 2016 00:00
Search period end: 10 July 2016 00:00
Orbit: 801 x 813 km, 98.4° (Epoch: 29 June)

Date Brightness Start Highest point End Pass type
(mag) Time Alt. Az. Time Alt. Az. Time Alt. Az.
30 Jun 3.2 03:33:49 10° NNE 03:38:48 39° E 03:43:40 10° SSE visible
01 Jul 3.9 03:09:49 10° NE 03:14:05 24° E 03:18:19 10° SSE visible
01 Jul 2.6 04:49:04 10° N 04:54:08 46° WNW 04:59:09 10° SW visible
02 Jul 4.5 02:46:24 10° NE 02:49:15 15° E 02:52:06 10° ESE visible
02 Jul 2.1 04:24:22 10° N 04:29:41 75° WNW 04:34:57 10° SSW visible
03 Jul 2.4 03:59:50 10° NNE 04:05:09 68° ESE 04:10:08 11° S visible
04 Jul 3.1 03:35:31 10° NNE 03:40:31 41° E 03:45:16 11° SSE visible
05 Jul 3.9 03:11:28 10° NE 03:15:49 25° E 03:20:07 10° SSE visible
05 Jul 2.6 04:50:48 10° N 04:55:50 44° WNW 05:00:49 10° SW visible
06 Jul 4.4 02:47:58 10° NE 02:51:00 15° E 02:54:00 10° SE visible
06 Jul 2.1 04:26:05 10° N 04:31:23 72° WNW 04:36:35 10° SSW visible
07 Jul 2.3 04:01:33 10° NNE 04:06:51 71° ESE 04:11:43 12° S visible
08 Jul 3.1 03:37:12 10° NNE 03:42:15 42° E 03:46:50 12° SSE visible
09 Jul 3.8 03:13:08 10° NE 03:17:32 26° E 03:21:54 10° SSE visible
09 Jul 2.7 04:52:32 10° N 04:57:31 43° WNW 05:02:28 10° SW visible
